Other Surface Observations
Issued by NWS Upton, NY

Home | Current Version | Previous Version | Text Only | Print | Product List | Glossary On
Versions: 1 2 3 4 5 6 7 8 9 10 11 12 13 14 15 16 17 18 19 20 21 22 23 24 25 26 27 28 29 30 31 32 33 34 35 36 37 38 39 40 41 42 43 44 45 46 47 48 49 50
000
SXUS51 KOKX 250957
OSOOKX
New York City Metropolitan Area Weather Roundup
National Weather Service New York NY
500 AM EST SUN FEB 25 2018

CITY           SKY/WX    TMP DP  RH WIND       PRES   REMARKS
Central Park   HVY RAIN  41  39  93 E13       30.15F FOG
LaGuardia Arpt RAIN      41  38  89 NE12      30.15F
Kennedy Intl   LGT RAIN  43  43 100 E14       30.15F
Newark Liberty RAIN      43  40  89 NE10      30.12F
Teterboro Arpt RAIN      42  39  89 NE12G20   30.13F FOG
Bronx Bot Gard   N/A     39  37  93 S1        30.16F
Bronx Lehman C   N/A     39  39 100 E7          N/A  WCI  34
Queens College   N/A     41  41 100 NE9         N/A
Breezy Point     N/A     41 N/A N/A E13G21      N/A
Brooklyn Coll    N/A     43  41  93 NE8         N/A
Staten Island    N/A     41  39  93 E12         N/A

>>>>>>>>>>>>>>>>>>>>>>>>>>>>>>>>> KEY <<<<<<<<<<<<<<<<<<<<<<<<<<<<<<<
> SKY/WX - Sky Condition/Present    : R : WCI - Wind Chill Index    <
>          Weather                  : E : VSB - Visibility in Miles <
> TMP    - Temperature in Deg F     : M : HX  - Heat Index          <
> DP     - Dew Point Temperature    : A : TC  - Temperature in      <
> RH     - Relative Humidity        : R :       Celsius             <
> WIND   - Direction/Speed (mph)    : K : VRB - Variable Wind Dir   <
> PRES   - Pressure (in Hg)         : S :                           <
>>>>>>>>>>>>>>>>>>>>>>>>>>>>>>>>> KEY <<<<<<<<<<<<<<<<<<<<<<<<<<<<<<<




USA.gov is the U.S. government's official web portal to all federal, state and local government web resources and services.